Terminal Aerodrome Forecast
Issued by NWS

Home | Current Version | Previous Version | Text Only | Print | Product List | Glossary On
Versions: 1 2 3 4 5 6 7 8 9 10 11 12 13 14 15 16 17 18
000
FTUS44 KSJT 202300
TAFBBD
TAF
KBBD 202320Z 2100/2124 15010KT P6SM SKC
     FM210100 15008KT P6SM SCT250
     FM211300 15008KT P6SM SCT020
     FM211500 17014KT P6SM SCT025=

USA.gov is the U.S. government's official web portal to all federal, state and local government web resources and services.